RH
44 48 46 51 57 70 71 71 90 76 54 37 36 38 40 33 25 18 20 18 16 18 14 13 22 24 25 14 11 12 14 17 14 11 14 11 22 20 18 18 25 63 100
76 61 60 59 51 62 66 72 58 49 41 47 54 51 46 44 37 26 17 17 16 17 16 21 24 32 19 12 11 14 29 20 21 12 20 24 28 23 24 24 23 28 65
89 100 99 93 82 82 74 48 45 52 58 76 80 44 49 42 30 26 18 17 22 28 24 24 17 14 15 15 15 17 47 37 35 16 24 26 49 42 40 40 42 29 30
83 76 98 78 55 53 48 45 47 50 63 76 68 58 56 43 23 22 19 18 25 24 20 19 17 15 18 32 40 38 39 41 36 26 24 36 41 47 59 42 58 61 41
100 98 75 59 44 48 48 47 55 66 79 92 80 69 57 35 23 17 18 27 27 19 18 24 16 17 21 41 66 74 44 43 39 26 24 33 41 32 53 43 55 73 65
100 100 85 59 54 55 54 57 62 77 100 100 83 66 57 38 33 15 21 34 26 20 18 24 16 19 21 32 100 92 83 62 44 26 32 31 51 51 62 58 60 77 94
100 98 72 81 67 64 75 84 72 64 100 100 82 52 38 44 23 17 30 42 26 20 22 20 18 17 36 79 100 100 98 100 54 29 21 37 58 63 71 67 67 70 80
95 100 98 94 81 90 72 77 67 55 94 96 66 71 24 17 19 22 48 43 29 22 20 26 20 38 50 100 100 100 100 100 100 92 26 28 35 53 50 63 69 74 81
100 100 100 100 100 94 87 68 64 55 57 59 56 53 28 21 21 30 59 46 32 24 23 23 10 39 68 100 100 99 84 85 100 100 98 59 40 44 52 62 72 73 84
100 100 100 100 100 93 89 78 68 59 56 54 35 31 25 26 38 46 62 51 35 28 22 16 15 48 91 100 100 78 63 64 94 100 77 63 74 100 95 100 100 100 100
78 80 90 89 95 89 80 71 63 48 44 38 32 33 36 41 49 51 66 59 44 30 27 22 53 93 97 100 100 74 54 65 84 85 81 100 98 71 91 100 100 100 100
74 64 64 63 59 58 68 67 52 43 36 40 60 55 59 65 56 64 76 67 49 31 27 12 87 100 100 100 100 58 54 58 44 61 100 100 98 100 100 100 100 100 100
91 80 82 86 71 40 61 55 47 46 89 92 76 93 93 82 78 63 84 64 44 33 32 14 82 100 100 100 100 58 51 45 56 65 100 99 100 100 100 100 100 100 100
100 100 100 99 89 77 77 100 100 100 100 99 94 84 70 68 59 73 83 63 45 43 36 20 60 100 100 100 100 96 47 45 62 76 99 100 100 100 100 100 100 100 100
95 100 100 100 100 100 95 100 99 100 100 97 100 80 83 92 89 88 75 54 45 50 54 37 46 100 100 100 99 99 58 39 49 56 94 92 70 100 100 99 76 83 96
64 72 92 100 100 100 100 100 99 98 100 98 100 100 100 93 83 74 65 71 66 61 55 37 21 100 100 100 94 88 60 40 37 45 88 100 100 77 99 93 76 89 99
18 19 30 53 83 100 100 98 97 94 92 100 100 97 92 88 80 79 77 83 77 60 59 34 20 100 100 100 100 98 72 44 61 43 55 79 100 100 100 100 100 100 100
12 13 14 15 19 32 58 96 100 94 99 100 100 100 95 96 81 72 73 94 89 66 49 24 23 100 100 100 100 100 98 63 59 46 38 47 55 63 72 88 78 80 97
16 15 13 14 17 18 21 23 47 87 100 100 100 100 84 86 78 82 79 98 99 75 44 30 28 100 100 100 99 100 100 96 56 86 48 68 91 76 43 55 55 61 59
16 17 15 14 18 22 23 21 20 23 36 85 100 100 100 87 67 75 89 100 100 84 56 41 21 100 100 100 100 100 97 100 83 88 90 89 100 90 68 66 53 44 47
26 23 23 20 18 19 27 32 22 23 23 30 57 88 100 100 100 100 100 100 98 83 56 46 35 100 100 100 100 100 93 100 100 92 50 100 89 83 84 75 86 100 100
36 34 31 29 24 24 22 37 45 33 31 30 30 40 66 80 99 100 100 100 100 100 57 52 49 28 100 100 100 100 100 100 100 100 100 80 100 83 91 100 99 96 100
46 43 39 37 34 28 29 25 45 54 39 30 29 30 35 42 65 73 96 100 100 100 76 50 54 19 99 100 100 100 100 100 100 100 100 100 100 76 80 75 100 100 100
42 45 41 40 40 39 33 30 37 53 55 38 34 37 33 32 32 56 68 96 100 100 93 68 61 24 100 99 100 100 100 97 100 100 100 100 100 100 93 86 73 94 100
22 45 50 45 40 42 44 39 34 34 49 50 42 41 40 35 33 37 49 95 100 100 100 98 73 34 100 100 100 100 96 100 96 97 100 100 100 100 98 97 100 100 100
19 26 49 51 46 42 42 45 37 43 38 73 50 42 39 44 38 35 31 45 55 100 100 100 90 54 45 100 100 100 94 93 98 98 90 94 100 100 100 100 83 89 100
Wind_Speed
44 45 45 47 47 47 46 43 41 38 39 42 43 42 42 39 40 42 43 46 46 48 43 49 56 47 50 48 45 46 53 56 57 59 61 61 62 61 63 59 60 60 62
46 47 47 49 47 45 46 45 45 46 42 44 45 44 45 45 47 46 45 46 46 50 46 51 51 52 49 44 42 43 44 52 56 58 62 61 59 61 60 60 60 61 58
47 47 46 46 47 47 48 48 46 46 45 45 44 46 48 47 47 48 47 50 52 51 47 53 53 48 44 39 37 40 40 44 53 56 60 56 61 59 57 54 58 61 60
51 54 53 52 49 50 50 48 49 48 46 45 48 48 49 50 50 50 50 52 54 48 48 56 54 50 38 33 31 35 39 41 49 58 59 60 61 58 56 54 50 51 57
57 58 57 56 54 55 52 51 51 50 49 46 48 50 51 51 49 48 50 55 51 48 53 53 49 43 29 32 29 30 32 39 47 56 60 58 59 58 53 52 50 47 51
60 63 62 58 57 58 57 56 55 53 51 52 55 55 54 53 53 50 52 53 48 48 52 49 49 34 30 28 22 23 23 30 42 51 59 59 57 56 52 50 50 48 43
64 67 66 63 62 60 60 61 60 55 58 58 58 56 56 56 54 51 54 51 48 49 47 43 42 32 27 25 22 22 21 24 30 44 52 57 57 54 49 51 50 51 47
69 69 69 67 68 66 64 62 61 61 58 60 60 59 56 53 52 52 54 50 48 47 44 42 37 30 30 30 28 26 25 26 24 29 41 51 57 54 50 49 50 49 46
75 72 72 69 68 69 68 65 64 63 61 63 63 64 57 57 57 56 53 49 50 45 40 41 35 32 33 35 32 31 32 29 22 26 31 36 44 52 49 49 46 48 48
79 76 79 78 74 71 73 70 68 64 66 67 63 60 61 56 55 55 50 49 48 42 40 41 32 34 36 39 36 30 30 29 25 25 26 25 28 29 31 28 26 22 27
76 77 77 78 79 78 75 73 70 68 66 64 63 63 63 60 56 57 49 51 50 37 39 34 29 34 41 40 37 34 27 30 24 24 30 31 29 16 23 27 27 25 26
76 75 76 76 75 74 74 73 71 67 67 68 67 69 67 63 59 58 51 51 49 36 39 34 34 38 43 40 38 39 27 27 29 30 42 34 32 16 27 29 23 24 25
73 79 78 76 73 73 73 73 72 69 70 71 73 74 71 64 60 57 54 51 46 37 38 30 39 40 45 43 37 37 31 29 29 38 49 28 34 42 34 30 35 36 37
72 76 78 79 80 78 76 73 69 71 75 78 77 73 71 65 59 58 57 51 46 39 37 29 41 44 48 46 45 36 32 33 35 40 54 45 50 46 51 49 48 48 47
77 76 75 74 73 74 73 72 74 75 75 72 70 69 68 65 61 58 51 48 41 39 35 34 37 47 53 48 46 39 36 33 34 40 52 54 48 54 56 53 52 49 47
83 77 78 75 74 72 72 75 74 69 67 67 66 63 60 57 51 49 48 45 41 41 38 34 31 53 55 54 49 47 43 41 38 41 57 58 50 53 55 57 59 56 53
79 76 78 78 76 76 75 74 77 74 68 66 66 65 62 56 49 47 45 45 42 41 41 36 38 57 58 53 41 46 47 46 43 43 42 53 57 52 58 60 58 58 58
78 79 77 76 76 76 78 82 76 72 73 72 71 68 64 58 52 47 48 49 47 45 37 34 40 55 55 55 46 42 48 51 46 48 45 42 45 47 47 52 53 58 56
79 79 81 79 77 77 76 75 80 84 75 65 69 71 70 63 58 55 53 54 52 44 39 36 41 55 58 58 51 48 46 48 47 41 46 45 46 50 45 49 53 56 54
89 87 83 81 79 81 79 78 76 76 78 81 73 66 64 61 57 58 56 55 56 46 43 39 41 57 51 53 53 51 52 51 55 49 43 46 48 49 44 47 49 50 52
100 96 95 89 87 83 80 78 76 74 73 74 80 85 77 62 55 53 60 59 53 49 46 44 44 57 58 52 52 50 56 55 48 52 51 54 51 50 48 51 53 52 52
106 103 101 102 96 90 84 80 77 73 71 72 73 76 85 84 76 68 64 63 64 60 52 50 48 51 61 60 54 59 58 55 57 50 54 56 57 54 55 54 58 58 61
115 111 105 108 106 99 93 89 82 79 77 74 71 71 75 78 82 82 74 69 70 65 59 58 53 51 62 68 69 66 61 59 60 62 55 53 48 54 53 51 61 64 62
125 119 113 109 112 109 100 95 94 86 79 78 73 74 74 74 74 76 76 71 69 65 63 65 59 59 59 70 70 74 72 65 61 61 62 62 59 53 54 61 57 62 67
129 128 123 115 115 114 110 105 100 97 88 81 78 76 75 74 73 72 70 70 67 66 66 67 65 65 68 67 68 72 76 76 71 67 62 58 54 54 54 59 66 68 67
130 134 132 126 118 119 116 115 107 104 98 86 83 80 78 75 74 69 68 68 68 70 69 72 70 69 68 73 75 71 71 75 77 71 73 67 62 60 58 59 62 65 67
Wind_Direction
251 248 248 251 252 254 257 261 258 260 269 277 277 275 280 291 297 299 302 304 300 304 296 296 300 291 286 279 268 250 245 243 235 228 227 229 227 227 229 226 226 228 226
250 249 248 251 254 255 257 257 262 268 272 273 275 277 284 287 294 298 301 302 298 301 294 299 299 292 288 278 268 248 244 236 234 227 223 227 229 228 229 229 226 230 230
248 248 245 246 250 252 253 259 263 266 270 271 272 279 282 289 294 297 300 301 301 298 295 299 299 295 291 276 259 240 237 237 231 225 219 224 227 228 229 228 228 231 233
245 250 247 250 256 256 258 263 267 268 270 268 272 277 283 288 295 298 299 300 302 295 295 300 300 296 285 268 247 244 240 238 233 221 219 221 225 227 230 231 231 233 237
249 251 249 251 255 259 258 260 265 269 272 268 272 278 281 289 296 299 300 303 299 297 299 300 302 297 266 260 252 248 244 236 226 222 219 219 225 228 232 232 235 236 239
248 249 249 250 257 258 258 258 263 268 267 270 273 277 283 286 291 295 299 303 297 299 305 298 304 285 262 241 238 234 224 225 225 222 222 221 223 226 232 234 238 238 243
249 245 248 249 256 260 259 260 263 265 266 269 271 275 283 285 288 293 298 297 294 302 302 302 302 278 235 223 211 208 209 217 216 220 223 222 222 225 231 234 239 241 244
253 251 250 253 260 259 259 260 260 262 262 266 270 274 280 283 286 288 295 294 296 301 302 303 295 258 222 207 202 197 195 195 207 209 218 223 225 227 233 236 237 239 245
251 251 252 255 256 257 257 259 262 261 263 267 271 273 279 282 283 285 289 291 297 298 303 301 290 241 220 202 200 200 203 192 191 200 202 212 222 231 235 237 242 245 246
249 250 251 253 256 257 259 262 263 262 267 267 273 274 278 281 284 286 287 289 297 296 300 299 276 230 216 203 204 201 201 193 184 189 190 187 192 207 215 217 224 224 229
251 252 255 256 258 259 260 262 263 268 272 271 273 274 277 281 278 284 281 287 293 294 293 295 248 230 213 203 210 206 198 204 174 181 160 158 154 183 217 213 219 214 210
254 255 256 257 260 261 263 264 266 268 269 268 269 273 274 276 276 279 279 284 288 289 289 295 229 227 215 205 213 209 195 199 181 171 149 146 159 209 191 191 207 216 213
259 260 259 259 258 261 262 264 265 265 261 262 267 271 273 274 274 272 276 281 279 282 280 294 226 223 216 206 217 216 206 195 173 177 164 177 176 190 165 179 193 192 195
252 252 253 255 257 256 256 256 257 257 259 265 267 267 268 270 270 271 274 277 272 272 274 293 229 224 214 215 214 212 202 203 183 186 188 190 192 197 192 200 203 205 207
259 257 256 256 251 247 248 252 257 259 260 261 261 264 264 264 265 267 266 267 260 263 266 275 239 221 216 212 214 211 203 201 199 190 199 200 203 197 202 206 204 206 212
259 259 257 257 258 256 258 252 251 253 255 256 256 255 257 260 260 260 256 249 251 257 259 267 258 222 218 212 219 217 215 217 213 205 198 206 202 207 209 209 209 216 219
256 256 256 255 253 248 251 254 257 254 250 250 251 256 256 257 258 252 245 247 249 251 258 261 247 221 221 211 222 216 218 221 212 209 203 210 214 221 217 220 227 230 232
253 252 253 254 255 253 250 250 247 249 250 251 249 251 253 252 251 249 247 245 246 247 251 252 240 221 224 216 215 214 216 216 218 218 222 215 218 222 227 234 237 238 239
251 253 250 252 255 256 252 251 249 249 245 244 245 246 248 248 246 246 245 244 242 243 245 250 233 223 223 221 218 220 220 216 218 218 220 221 220 223 225 227 231 236 237
252 253 253 252 254 254 254 251 251 250 247 246 240 242 240 241 240 240 241 239 240 240 247 247 237 221 219 228 223 223 224 228 226 226 224 220 226 233 234 233 234 234 235
252 252 252 252 250 254 254 252 250 250 250 248 247 245 243 239 237 235 237 231 236 245 247 249 243 218 212 219 218 222 223 222 213 222 227 231 233 233 236 237 238 233 236
251 250 251 250 248 248 252 253 249 247 245 246 246 245 246 246 245 236 236 234 244 246 245 245 241 226 218 215 218 220 215 221 220 222 224 228 235 237 235 236 238 232 235
248 248 248 248 248 247 245 249 249 245 245 246 247 244 244 244 244 245 244 240 242 242 243 245 238 228 221 218 221 223 223 222 227 225 224 221 229 234 235 238 238 237 238
246 244 245 244 245 247 245 246 247 245 241 245 244 242 242 242 241 241 243 241 236 236 237 237 232 228 220 222 224 226 225 225 228 230 232 230 233 235 235 240 241 240 243
245 242 241 241 241 244 244 244 244 246 244 242 239 238 239 240 240 238 238 236 234 233 231 230 230 223 214 221 221 227 227 230 231 233 235 236 237 240 239 238 238 240 242
239 241 240 239 238 240 241 241 243 242 243 236 236 236 237 237 238 239 238 235 234 233 230 228 228 224 219 216 223 223 229 231 234 235 236 238 237 238 240 241 239 242 244